Fremont, MI

2:26 PM EDT on May 26, 2017 (GMT -0400)
Fremont

Weather History for KFFX - December, 2013

Change the Weather History Date:

Sunday, December 22, 2013

  Actual Average (KMKG) Record (KMKG)
Temperature  
Mean Temperature 26 °F -  
Max Temperature 28 °F 32 °F 55 °F (1957)
Min Temperature 23 °F 22 °F -3 °F (1901)
Degree Days  
Heating Degree Days 40    
Moisture  
Dew Point 25 °F    
Average Humidity 93    
Maximum Humidity 100    
Minimum Humidity 83    
Precipitation  
Precipitation 0.00 in - - ()
Sea Level Pressure  
Sea Level Pressure 29.77 in    
Wind  
Wind Speed 9 mph (NE)    
Max Wind Speed 15 mph    
Max Gust Speed 21 mph    
Visibility 7 miles    
Events Snow    
Averages and records for this station are not official NWS values.
T = Trace of Precipitation, MM = Missing Value Source: NWS Daily Summary

Daily Weather History Graph

Daily Weather History Graph

Search for Another Location

Airport or City:

Trip Planner

Search our weather history database for the weather conditions in past years. The results will help you decide how hot, cold, wet, or windy it might be!

Date:

Astronomy

Dec. 22, 2013 Rise Set
Actual Time 8:14 AM EST 5:11 PM EST
Civil Twilight 7:41 AM EST 5:44 PM EST
Nautical Twilight 7:05 AM EST 6:20 PM EST
Astronomical Twilight 6:30 AM EST 6:55 PM EST
Moon 10:32 PM EST (12/22) 11:02 AM EST (12/22)
Length of Visible Light 10h 02m
Length of Day
8h 57m
Waning Gibbous, 77% of the Moon is Illuminated
Dec 22
Waning Gibbous
Dec 25
Last Quarter
Jan 1
New
Jan 7
First Quarter
Jan 15
Full

Hourly Weather History & Observations

Time (EST) Temp. Windchill Dew Point Humidity Pressure Visibility Wind Dir Wind Speed Gust Speed Precip Events Conditions
12:11 AM 27.3 °F 16.1 °F 26.2 °F 96% 29.71 in 4.0 mi NE 13.8 mph - N/A Snow Light Snow
12:31 AM 27.3 °F 16.6 °F 25.9 °F 94% 29.69 in 4.0 mi ENE 12.7 mph 18.4 mph N/A Snow Light Snow
12:51 AM 27.1 °F 15.9 °F 25.7 °F 94% 29.66 in 5.0 mi ENE 13.8 mph 20.7 mph N/A Snow Light Snow
1:12 AM 27.5 °F 15.9 °F 25.7 °F 93% 29.63 in 5.0 mi ENE 15.0 mph 20.7 mph N/A Snow Light Snow
1:32 AM 27.9 °F 16.8 °F 25.7 °F 92% 29.67 in 7.0 mi ENE 13.8 mph 19.6 mph N/A   Overcast
1:52 AM 28.2 °F 16.8 °F 25.7 °F 90% 29.65 in 10.0 mi East 15.0 mph - N/A   Overcast
2:12 AM 28.4 °F 18.5 °F 25.7 °F 90% 29.70 in 10.0 mi ENE 11.5 mph 18.4 mph N/A   Overcast
2:32 AM 28.8 °F 19.5 °F 26.2 °F 90% 29.69 in 10.0 mi NE 10.4 mph - N/A   Light Freezing Rain
2:52 AM 28.4 °F 22.2 °F 27.0 °F 94% 29.73 in 4.0 mi North 5.8 mph - N/A   Overcast
3:12 AM 27.7 °F 20.4 °F 26.8 °F 96% 29.69 in 4.0 mi NNE 6.9 mph - N/A Snow Light Snow
3:33 AM 27.3 °F 19.1 °F 26.6 °F 97% 29.70 in 5.0 mi North 8.1 mph - N/A   Overcast
3:53 AM 27.1 °F 18.9 °F 26.4 °F 97% 29.68 in 5.0 mi North 8.1 mph - N/A Snow Light Snow
4:13 AM 27.3 °F 17.1 °F 26.4 °F 96% 29.65 in 4.0 mi NNE 11.5 mph 17.3 mph N/A Snow Light Snow
4:33 AM 27.5 °F 18.0 °F 26.4 °F 96% 29.64 in 7.0 mi NE 10.4 mph - N/A   Overcast
4:53 AM 27.9 °F 19.1 °F 26.6 °F 95% 29.65 in 7.0 mi NE 9.2 mph - N/A   Overcast
5:13 AM 28.2 °F 18.3 °F 27.1 °F 96% 29.63 in 5.0 mi NE 11.5 mph 18.4 mph N/A   Overcast
5:33 AM 28.4 °F 19.7 °F 27.3 °F 96% 29.62 in 5.0 mi ENE 9.2 mph 17.3 mph N/A   Overcast
5:53 AM 28.2 °F 18.3 °F 27.0 °F 95% 29.61 in 7.0 mi ENE 11.5 mph - N/A   Overcast
6:13 AM 28.4 °F 19.7 °F 26.6 °F 93% 29.64 in 7.0 mi NE 9.2 mph - N/A   Overcast
6:33 AM 28.2 °F 18.3 °F 26.6 °F 94% 29.63 in 7.0 mi ENE 11.5 mph 17.3 mph N/A   Overcast
6:53 AM 28.2 °F 18.9 °F 26.6 °F 94% 29.63 in 7.0 mi NE 10.4 mph 17.3 mph N/A Snow Light Snow
7:14 AM 28.0 °F 20.0 °F 26.6 °F 94% 29.63 in 10.0 mi NE 8.1 mph - N/A   Overcast
7:34 AM 28.2 °F 18.3 °F 26.6 °F 94% 29.63 in 7.0 mi ENE 11.5 mph - N/A   Overcast
7:54 AM 28.4 °F 18.0 °F 27.3 °F 96% 29.63 in 5.0 mi ENE 12.7 mph - N/A   Overcast
8:14 AM 28.4 °F 21.2 °F 27.3 °F 96% 29.64 in 5.0 mi East 6.9 mph - N/A Snow Light Snow
8:34 AM 28.4 °F 19.1 °F 27.3 °F 96% 29.64 in 3.0 mi East 10.4 mph - N/A   Overcast
8:54 AM 28.4 °F 20.4 °F 27.3 °F 96% 29.65 in 2.0 mi East 8.1 mph - N/A Snow Light Snow
9:14 AM 28.2 °F 19.5 °F 27.3 °F 96% 29.65 in 3.0 mi ENE 9.2 mph - N/A Snow Light Snow
9:34 AM 28.2 °F 20.2 °F 27.0 °F 95% 29.66 in 5.0 mi NE 8.1 mph - N/A Snow Light Snow
9:55 AM 28.2 °F 20.2 °F 27.1 °F 96% 29.71 in 1.5 mi NW 8.1 mph - N/A Snow Light Snow
10:15 AM 27.3 °F 19.1 °F 27.1 °F 99% 29.72 in 0.2 mi NNW 8.1 mph - N/A Snow Snow
10:35 AM 27.0 °F 19.5 °F 26.6 °F 99% 29.73 in 0.5 mi North 6.9 mph - N/A Snow Snow
10:55 AM 27.0 °F 18.7 °F 26.6 °F 99% 29.73 in 0.5 mi North 8.1 mph - N/A Snow Light Snow
11:10 AM 26.6 °F 17.5 °F 26.6 °F 100% 29.73 in 0.5 mi North 9.2 mph - N/A Snow Light Snow
11:31 AM 26.4 °F 18.0 °F 26.1 °F 99% 29.74 in 0.5 mi North 8.1 mph - N/A Snow Light Snow
11:51 AM 26.1 °F 16.8 °F 25.5 °F 98% 29.73 in 0.8 mi North 9.2 mph - N/A Snow Light Snow
12:11 PM 26.1 °F 17.6 °F 25.5 °F 98% 29.73 in 1.0 mi North 8.1 mph - N/A Snow Light Snow
12:26 PM 26.1 °F 17.6 °F 25.3 °F 97% 29.74 in 0.5 mi North 8.1 mph - N/A Snow Snow
4:06 PM 27.0 °F 21.6 °F 22.3 °F 83% 29.83 in 10.0 mi NE 4.6 mph - N/A   Overcast
4:11 PM 27.0 °F 23.0 °F 22.3 °F 83% 29.83 in 10.0 mi NE 3.5 mph - N/A   Overcast
4:31 PM 26.6 °F 22.6 °F 22.6 °F 85% 29.84 in 10.0 mi NNE 3.5 mph - N/A   Overcast
4:52 PM 26.6 °F 21.2 °F 22.6 °F 85% 29.85 in 10.0 mi NNE 4.6 mph - N/A   Overcast
5:12 PM 26.6 °F 22.6 °F 22.8 °F 86% 29.87 in 10.0 mi NE 3.5 mph - N/A   Overcast
5:32 PM 26.6 °F 20.0 °F 22.8 °F 86% 29.87 in 10.0 mi NNE 5.8 mph - N/A   Overcast
5:52 PM 26.4 °F 20.9 °F 22.8 °F 86% 29.88 in 10.0 mi NNE 4.6 mph - N/A   Overcast
6:12 PM 26.1 °F 21.9 °F 22.8 °F 88% 29.89 in 10.0 mi NNE 3.5 mph - N/A   Overcast
6:32 PM 25.7 °F 21.5 °F 22.5 °F 88% 29.90 in 10.0 mi NE 3.5 mph - N/A   Overcast
6:52 PM 25.5 °F 18.7 °F 21.9 °F 86% 29.90 in 10.0 mi ENE 5.8 mph - N/A   Overcast
7:12 PM 25.2 °F 20.9 °F 22.1 °F 88% 29.91 in 10.0 mi NNE 3.5 mph - N/A   Overcast
7:33 PM 24.8 °F - 22.1 °F 89% 29.92 in 10.0 mi Calm Calm - N/A   Overcast
7:53 PM 24.6 °F - 22.6 °F 92% 29.92 in 10.0 mi Calm Calm - N/A   Overcast
8:13 PM 24.4 °F - 23.0 °F 94% 29.93 in 10.0 mi Calm Calm - N/A   Overcast
8:33 PM 24.3 °F 18.4 °F 23.0 °F 95% 29.94 in 10.0 mi NNE 4.6 mph - N/A   Overcast
8:53 PM 23.9 °F 18.0 °F 22.8 °F 96% 29.94 in 10.0 mi NE 4.6 mph - N/A Snow Light Snow
9:13 PM 23.9 °F 19.5 °F 22.1 °F 93% 29.95 in 10.0 mi NE 3.5 mph - N/A   Overcast
9:33 PM 23.9 °F - 21.9 °F 92% 29.95 in 10.0 mi Calm Calm - N/A   Overcast
9:53 PM 23.9 °F - 22.1 °F 93% 29.95 in 10.0 mi Calm Calm - N/A   Overcast
10:13 PM 23.9 °F 19.5 °F 22.5 °F 94% 29.95 in 10.0 mi NNE 3.5 mph - N/A   Overcast
10:33 PM 23.7 °F - 22.1 °F 94% 29.96 in 10.0 mi Calm Calm - N/A   Overcast
10:54 PM 23.5 °F 19.1 °F 21.7 °F 93% 29.97 in 10.0 mi North 3.5 mph - N/A   Overcast
11:14 PM 23.4 °F - 21.7 °F 94% 29.97 in 10.0 mi Calm Calm - N/A   Overcast
11:34 PM 23.4 °F - 21.7 °F 94% 29.98 in 10.0 mi Calm Calm - N/A   Overcast
11:54 PM 23.0 °F - 21.9 °F 96% 29.99 in 10.0 mi Calm Calm - N/A Snow Light Snow